When you browse on this site, cookies collect data to enhance your experience and personalize the content and advertising you see.
Visit our Privacy Policy to learn more. By continuing to use the site, you agree to this use of cookies and data.
  • In United Kingdom
  • List of Countries
  • For 7 days
  • Water Temperature
  • Satellite Maps
  • Weather Map
  • Weather Widgets
  • user-avatar
    Login

    Hourly Weather Loos

    Today, 16 February, Saturday

    Time Temperature Precipitation Wind Pressure Humidity
    00:00 +5°C° 0 mm 3 mps 767 mmHg 80%
    01:00 +4°C° 0 mm 3 mps 767 mmHg 81%
    02:00 +4°C° 0 mm 3 mps 767 mmHg 81%
    03:00 +4°C° 0 mm 3 mps 767 mmHg 82%
    04:00 +4°C° 0 mm 3 mps 767 mmHg 83%
    05:00 +3°C° 0 mm 3 mps 767 mmHg 84%
    06:00 +3°C° 0 mm 3 mps 767 mmHg 85%
    07:00 +4°C° 0 mm 3 mps 767 mmHg 81%
    08:00 +5°C° 0 mm 4 mps 767 mmHg 77%
    09:00 +6°C° 0 mm 4 mps 767 mmHg 74%
    10:00 +7°C° 0 mm 4 mps 767 mmHg 70%
    11:00 +10°C° 0 mm 4 mps 767 mmHg 65%
    12:00 +11°C° 0 mm 3 mps 767 mmHg 61%
    13:00 +12°C° 0 mm 3 mps 767 mmHg 61%
    14:00 +12°C° 0 mm 3 mps 766 mmHg 61%
    15:00 +13°C° 0 mm 3 mps 766 mmHg 61%
    16:00 +11°C° 0 mm 3 mps 766 mmHg 67%
    17:00 +10°C° 0 mm 3 mps 766 mmHg 73%
    18:00 +9°C° 0 mm 2 mps 766 mmHg 78%
    19:00 +8°C° 0 mm 3 mps 766 mmHg 80%
    20:00 +8°C° 0 mm 3 mps 766 mmHg 81%
    21:00 +7°C° 0 mm 3 mps 766 mmHg 83%
    22:00 +7°C° 0 mm 3 mps 765 mmHg 84%
    23:00 +7°C° 0 mm 3 mps 765 mmHg 85%

    Tomorrow, 17 February, Sunday

    Time Temperature Precipitation Wind Pressure Humidity
    00:00 +5°C° 0 mm 3 mps 765 mmHg 86%
    01:00 +5°C° 0 mm 3 mps 764 mmHg 85%
    02:00 +5°C° 0 mm 3 mps 764 mmHg 84%
    03:00 +5°C° 0 mm 4 mps 764 mmHg 83%
    04:00 +5°C° 0 mm 4 mps 763 mmHg 81%
    05:00 +5°C° 0 mm 4 mps 763 mmHg 80%
    06:00 +5°C° 0 mm 4 mps 763 mmHg 79%
    07:00 +5°C° 0 mm 5 mps 763 mmHg 74%
    08:00 +6°C° 0 mm 5 mps 763 mmHg 69%
    09:00 +7°C° 0 mm 6 mps 762 mmHg 64%
    10:00 +8°C° 0 mm 6 mps 762 mmHg 60%
    11:00 +10°C° 0 mm 6 mps 762 mmHg 55%
    12:00 +11°C° 0 mm 6 mps 762 mmHg 51%
    13:00 +11°C° 0 mm 6 mps 762 mmHg 52%
    14:00 +13°C° 0 mm 6 mps 761 mmHg 52%
    15:00 +13°C° 0 mm 5 mps 761 mmHg 53%
    16:00 +12°C° 0 mm 5 mps 761 mmHg 57%
    17:00 +11°C° 0 mm 4 mps 761 mmHg 61%
    18:00 +8°C° 0 mm 4 mps 762 mmHg 66%
    19:00 +8°C° 0 mm 4 mps 762 mmHg 67%
    20:00 +7°C° 0 mm 4 mps 762 mmHg 69%
    21:00 +7°C° 0 mm 4 mps 762 mmHg 71%
    22:00 +7°C° 0 mm 4 mps 762 mmHg 73%
    23:00 +7°C° 0 mm 3 mps 762 mmHg 74%

    Day after tomorrow, 18 February, Monday

    Time Temperature Precipitation Wind Pressure Humidity
    00:00 +7°C° 0 mm 3 mps 762 mmHg 76%
    01:00 +7°C° 0 mm 3 mps 761 mmHg 77%
    02:00 +5°C° 0 mm 3 mps 761 mmHg 79%
    03:00 +5°C° 0 mm 3 mps 761 mmHg 81%
    04:00 +5°C° 0 mm 3 mps 761 mmHg 82%
    05:00 +4°C° 0 mm 3 mps 761 mmHg 83%
    06:00 +4°C° 0 mm 3 mps 761 mmHg 84%
    07:00 +5°C° 0 mm 3 mps 761 mmHg 82%
    08:00 +7°C° 0 mm 3 mps 761 mmHg 79%
    09:00 +6°C° 0 mm 4 mps 761 mmHg 77%
    10:00 +8°C° 0 mm 4 mps 761 mmHg 74%
    11:00 +10°C° 0 mm 4 mps 761 mmHg 71%
    12:00 +11°C° 0 mm 4 mps 761 mmHg 67%
    13:00 +12°C° 0 mm 4 mps 761 mmHg 66%
    14:00 +12°C° 0 mm 4 mps 760 mmHg 65%
    15:00 +13°C° 0 mm 4 mps 760 mmHg 64%
    16:00 +12°C° 0 mm 3 mps 760 mmHg 69%
    17:00 +10°C° 0 mm 3 mps 760 mmHg 75%
    18:00 +9°C° 0 mm 2 mps 761 mmHg 80%
    19:00 +9°C° 0 mm 2 mps 761 mmHg 82%
    20:00 +8°C° 0 mm 2 mps 761 mmHg 85%
    21:00 +8°C° 0 mm 2 mps 761 mmHg 87%
    22:00 +8°C° 0.1 mm 2 mps 761 mmHg 89%
    23:00 +8°C° 0.1 mm 2 mps 761 mmHg 90%

    19 February, Tuesday

    Time Temperature Precipitation Wind Pressure Humidity
    00:00 +8°C° 0.1 mm 2 mps 762 mmHg 92%
    01:00 +8°C° 0.4 mm 2 mps 761 mmHg 92%
    02:00 +7°C° 0.4 mm 2 mps 761 mmHg 93%
    03:00 +7°C° 0.4 mm 2 mps 761 mmHg 94%
    04:00 +7°C° 0.2 mm 2 mps 762 mmHg 93%
    05:00 +7°C° 0.2 mm 2 mps 762 mmHg 93%
    06:00 +7°C° 0.2 mm 2 mps 762 mmHg 93%
    07:00 +8°C° 0 mm 3 mps 762 mmHg 90%
    08:00 +8°C° 0 mm 3 mps 763 mmHg 88%
    09:00 +8°C° 0 mm 3 mps 763 mmHg 85%
    10:00 +9°C° 0 mm 3 mps 763 mmHg 77%
    11:00 +10°C° 0 mm 4 mps 763 mmHg 70%
    12:00 +11°C° 0 mm 4 mps 763 mmHg 63%
    13:00 +11°C° 0 mm 4 mps 763 mmHg 62%
    14:00 +11°C° 0 mm 4 mps 763 mmHg 61%
    15:00 +11°C° 0 mm 4 mps 763 mmHg 60%
    16:00 +10°C° 0 mm 3 mps 763 mmHg 65%
    17:00 +9°C° 0 mm 3 mps 764 mmHg 71%
    18:00 +8°C° 0 mm 2 mps 764 mmHg 76%
    19:00 +7°C° 0 mm 2 mps 764 mmHg 78%
    20:00 +7°C° 0 mm 2 mps 764 mmHg 81%
    21:00 +7°C° 0 mm 2 mps 765 mmHg 84%
    22:00 +7°C° 0 mm 2 mps 765 mmHg 84%
    23:00 +6°C° 0 mm 2 mps 765 mmHg 84%

    20 February, Wednesday

    Time Temperature Precipitation Wind Pressure Humidity
    00:00 +5°C° 0 mm 3 mps 765 mmHg 85%
    01:00 +5°C° 0 mm 3 mps 765 mmHg 85%
    02:00 +5°C° 0 mm 3 mps 764 mmHg 85%
    03:00 +4°C° 0 mm 3 mps 764 mmHg 85%
    04:00 +4°C° 0 mm 3 mps 764 mmHg 85%
    05:00 +4°C° 0 mm 3 mps 764 mmHg 84%
    06:00 +4°C° 0 mm 3 mps 764 mmHg 84%
    07:00 +5°C° 0 mm 3 mps 765 mmHg 80%
    08:00 +5°C° 0 mm 4 mps 765 mmHg 77%
    09:00 +6°C° 0 mm 4 mps 765 mmHg 73%
    10:00 +7°C° 0 mm 4 mps 765 mmHg 69%
    11:00 +8°C° 0 mm 4 mps 765 mmHg 64%
    12:00 +11°C° 0 mm 4 mps 765 mmHg 59%
    13:00 +11°C° 0 mm 4 mps 765 mmHg 60%
    14:00 +12°C° 0 mm 4 mps 765 mmHg 61%
    15:00 +12°C° 0 mm 4 mps 765 mmHg 63%
    16:00 +11°C° 0 mm 3 mps 765 mmHg 69%
    17:00 +10°C° 0 mm 2 mps 765 mmHg 75%
    18:00 +9°C° 0 mm 2 mps 766 mmHg 82%
    19:00 +8°C° 0 mm 2 mps 766 mmHg 84%
    20:00 +8°C° 0 mm 2 mps 766 mmHg 86%
    21:00 +8°C° 0 mm 2 mps 766 mmHg 88%
    22:00 +7°C° 0 mm 2 mps 766 mmHg 89%
    23:00 +7°C° 0 mm 2 mps 766 mmHg 90%

    21 February, Thursday

    Time Temperature Precipitation Wind Pressure Humidity
    00:00 +7°C° 0 mm 2 mps 766 mmHg 91%
    01:00 +7°C° 0 mm 2 mps 766 mmHg 91%
    02:00 +7°C° 0 mm 2 mps 766 mmHg 92%
    03:00 +7°C° 0 mm 2 mps 767 mmHg 92%
    04:00 +7°C° 0 mm 2 mps 767 mmHg 93%
    05:00 +7°C° 0 mm 2 mps 767 mmHg 93%
    06:00 +6°C° 0 mm 2 mps 767 mmHg 93%
    07:00 +7°C° 0 mm 2 mps 767 mmHg 91%
    08:00 +8°C° 0 mm 2 mps 767 mmHg 89%
    09:00 +9°C° 0 mm 2 mps 768 mmHg 86%
    10:00 +10°C° 0 mm 2 mps 768 mmHg 81%
    11:00 +12°C° 0 mm 3 mps 768 mmHg 75%
    12:00 +13°C° 0 mm 3 mps 768 mmHg 70%
    13:00 +14°C° 0 mm 2 mps 768 mmHg 68%
    14:00 +15°C° 0 mm 2 mps 767 mmHg 67%
    15:00 +15°C° 0 mm 2 mps 767 mmHg 65%
    16:00 +14°C° 0 mm 1 mps 768 mmHg 70%
    17:00 +12°C° 0 mm 1 mps 768 mmHg 76%
    18:00 +10°C° 0 mm 0 mps 768 mmHg 81%
    19:00 +10°C° 0 mm 0 mps 768 mmHg 82%
    20:00 +9°C° 0 mm 0 mps 768 mmHg 84%
    21:00 +9°C° 0 mm 0 mps 769 mmHg 85%
    22:00 +9°C° 0 mm 0 mps 769 mmHg 86%
    23:00 +8°C° 0 mm 0 mps 769 mmHg 86%
    Show more